User: anonymous   Login
Location: Newark
(12.4436°N, 0.6167°W)
Time: 19:03:56
(UTC+00:00)
Language:

A-11 Canister half - Orbit

View from above orbital plane
View from above orbital plane
View from above satellite
View from above satellite

Ground track
Ground track

The orbit data is extracted from the following two-line orbital elements,

1 00053U 60009E   21025.82622041 -.00000100  00000-0 -13945-3 0  9996
2 00053  47.2769 293.2310 0100428  18.0855 342.3468 12.17252402695654
Epoch (UTC): 25 January 2021 19:49:45
Eccentricity: 0.0100428
inclination: 47.2769°
perigee height: 1524 km
apogee height: 1684 km
right ascension of ascending node: 293.2310°
argument of perigee: 18.0855°
revolutions per day: 12.17252402
mean anomaly at epoch: 342.3468°
orbit number at epoch: 69565

The dashed part of the orbit path shows where the satellite is in the earth's shadow,  

DLR